This is the latest recevied weather packets stored in our database for station/object W6ORV. If no packets are shown the sender has not sent any weather packets the latest 10 day(s).
| Time | Temp. | Humidity | Pressure | Rain* | Wind** | Luminosity | Snow |
|---|---|---|---|---|---|---|---|
| 1778214014 | 19.44° C | 64% | 4301 hPa | 0 mm | - | 0 W/m² | - |
| 1778213710 | 20° C | 63% | 4300.7 hPa | 0 mm | - | 0 W/m² | - |
| 1778213407 | 20° C | 63% | 4300.7 hPa | 0 mm | - | 0 W/m² | - |
| 1778213104 | 20° C | 63% | 4300.8 hPa | 0 mm | - | 0 W/m² | - |
| 1778212801 | 20° C | 62% | 4300.4 hPa | 0 mm | - | 0 W/m² | - |
| 1778212498 | 20° C | 62% | 4300.5 hPa | 0 mm | - | 0 W/m² | - |
| 1778212195 | 20° C | 63% | 4300.3 hPa | 0 mm | - | 0 W/m² | - |
| 1778211892 | 20.56° C | 63% | 4300.4 hPa | 0 mm | - | 0 W/m² | - |
| 1778211589 | 20.56° C | 62% | 4300.2 hPa | 0 mm | - | 0 W/m² | - |
| 1778211287 | 21.11° C | 61% | 4300.1 hPa | 0 mm | - | 0 W/m² | - |
| 1778210984 | 21.11° C | 60% | 4300.1 hPa | 0 mm | - | 0 W/m² | - |
| 1778210681 | 21.67° C | 59% | 4300.3 hPa | 0 mm | - | 0 W/m² | - |
| 1778210378 | 21.67° C | 57% | 4299.9 hPa | 0 mm | - | 0 W/m² | - |
| 1778210076 | 21.67° C | 57% | 4300 hPa | 0 mm | - | 0 W/m² | - |
| 1778209771 | 22.22° C | 57% | 4300.2 hPa | 0 mm | - | 0 W/m² | - |
| 1778209468 | 22.78° C | 57% | 4300 hPa | 0 mm | - | 0 W/m² | - |
| 1778209166 | 22.78° C | 59% | 4299.9 hPa | 0 mm | - | 0 W/m² | - |
| 1778208862 | 23.33° C | 60% | 4299.9 hPa | 0 mm | - | 2 W/m² | - |
| 1778208559 | 23.89° C | 57% | 4299.8 hPa | 0 mm | - | 4 W/m² | - |
| 1778208255 | 24.44° C | 56% | 4299.5 hPa | 0 mm | - | 7 W/m² | - |
| 1778207952 | 24.44° C | 55% | 4299.7 hPa | 0 mm | - | 10 W/m² | - |
| 1778207649 | 25° C | 54% | 4299.6 hPa | 0 mm | - | 14 W/m² | - |
| 1778207346 | 25° C | 54% | 4299.6 hPa | 0 mm | - | 18 W/m² | - |
| 1778207041 | 26.11° C | 52% | 4299.5 hPa | 0 mm | - | 23 W/m² | - |
| 1778206739 | 26.11° C | 52% | 4299.4 hPa | 0 mm | - | 26 W/m² | - |
* Rain latest hour (hover to see other rain measurements)
** Current wind speed in m/s (hover to see current wind gust speed)